STARLINK-38176, 100189

Orbit data source: Space-Track

STARLINK-38176, 100189 is a payload satellite owned by SpaceX/Seattle (US) in SSO that was launched on Sat, 01 Aug 2026 UTC launched from the Air Force Western Test Range (AFWTR). Payload-class satellites include a variety of spacecraft equipped with specific instruments for various scientific and technological missions. These include communications satellites like Starlink; space stations such as the ISS; scientific satellites like the Hubble; Earth observation satellites from companies like Planet Labs, Umbra, and HawkEye 360; GPS; miniature CubeSats for education and research; and military/defense satellites.

Not visible in the next 10 days
Identifier
100189, 2026-175L
Orbit
SSO
Country
Flag of USUS
Related business
Manufacturer
SpaceX/Seattle
Mission
Operational spacecraft
Bus & Motor
STARLINK V2MO, Unknown motor
Mass
575 kg wet, ~530 kg dry
Launch date (UTC)
2026-08-01 (1 month ago)
Launch vehicle
Unknown
Launch site
Air Force Western Test Range (AFWTR)
Object type
Payload
Rocket body
Debris
Shape & HBR
BOX + PAN, 17.7 m
Radar Cross Section
Large (>1 m²)

Expand to show TLE details & history
Last TLE update: 9 hours ago

TLE from 9 hours ago
0 STARLINK-38176
1 A0189U 26175L   26249.52889547  .00150966  00000-0  98968-3 0  9990
2 A0189  97.2839  91.2247 0001454 112.9240 247.2179 15.75319195  6976
Epoch: 2026-09-06T12:41Z
TLE epoch observation values (Epoch: 2026-09-06T12:41:36.568Z)
Latitude
-0.00002°
Longitude
-84.80038°
Altitude
347.27 km
Speed
7.7 km/s
True Right ascension
06h 04m 53s
True Declination
0° 00' 00"
Sunlit
Object was in daylight at epoch
Visualization orbit readout
Latitude
Unknown
Longitude
Unknown
Altitude
Unknown
Speed
Unknown
Apparent Right ascension
Unknown
Apparent Declination
Unknown
Sunlit
N/A
Visualization observer readout
Local Sidereal Time
13:22:55
Azimuth
Unknown
Elevation
Unknown
Doppler factor
Unknown
Orbital elements
Apogee altitude
341.587 km
Perigee altitude
339.633 km
Semi-major axis
6,718.747 km
Eccentricity
0.00015
Inclination
97.2839°
RAAN
91.2247°
Arg. of periapsis
112.924°
True anomaly
247.20254°
Mean anomaly
247.2179°
Eccentric anomaly
247.21022°
Mean motion
3.94104 °/min
Orbital period
91.35 mins
BSTAR
0.00098968
Loading maneuver chart data...
Computing Atmospheric mass density...
Loading historical data...
Loading historical data...
Loading historical data...
Loading historical data...
Loading historical data...
Loading historical data...
Loading historical data...

Documentation

Showing up to 5 results
|